Regional Weather Roundup
Issued by NWS New Orleans/Baton Rouge, LA

Home | Current Version | Previous Version | Text Only | Print | Product List | Glossary On
Versions: 1 2 3 4 5 6 7 8 9 10 11 12 13 14 15 16 17 18 19 20 21 22 23 24 25 26 27 28 29 30 31 32 33 34 35 36 37 38 39 40 41 42 43 44 45 46 47 48 49 50
015
ASUS44 KLIX 100613
RWRLIX
NEW ORLEANS REGIONAL WEATHER ROUNDUP
NATIONAL WEATHER SERVICE NEW ORLEANS LA
1200 AM CST SAT DEC 10 2016

NOTE: "FAIR" INDICATES FEW OR NO CLOUDS BELOW 12,000 FEET WITH NO
      SIGNIFICANT WEATHER AND/OR OBSTRUCTIONS TO VISIBILITY.
      SKY/WX - SKY CONDITION AND SIGNIFICANT WEATHER.
      TMP - AIR TEMPERATURE.     DP    - DEWPOINT TEMPERATURE.
      RH  - RELATIVE HUMIDITY.   PRES  - PRESSURE.
      HI  - HEAT INDEX.          WCI   - WIND CHILL INDEX.

*  THESE STATIONS ARE NOT NWS OR FAA STATIONS AND ARE NOT UNDER
   NWS QUALITY CONTROL.

LAZ038-040-048-061>063-065>067-069-100700-
SOUTHEAST LOUISIANA

CITY           SKY/WX    TMP DP  RH WIND       PRES   REMARKS
N.O. AUDUBON   NOT AVBL
N.O. INTL ARPT CLEAR     44  26  49 NE8       30.50F
6HR MIN TEMP:  44; 6HR MAX TEMP:  49;

N.O. LAKEFRONT CLEAR     44  26  49 NE23      30.51F
6HR MIN TEMP:  44; 6HR MAX TEMP:  50;

N.O. DOWNTOWN*   N/A     43  22  43 VRB6      30.52S
6HR MIN TEMP:  43; 6HR MAX TEMP:  49;

RESERVE*         N/A     42  22  45 NE8       30.52S
6HR MIN TEMP:  42; 6HR MAX TEMP:  47;

SLIDELL        CLEAR     35  24  64 NE6       30.51F WCI  30
6HR MIN TEMP:  33; 6HR MAX TEMP:  40;

BATON ROUGE    CLEAR     35  24  64 NE3       30.53S
6HR MIN TEMP:  35; 6HR MAX TEMP:  44;

BOOTHVILLE     CLEAR     46  33  60 NE10      30.49S
6HR MIN TEMP:  46; 6HR MAX TEMP:  47;

BELLE CHASSE   CLEAR     41  25  53 NE9       30.50F
6HR MIN TEMP:  41; 6HR MAX TEMP:  47;

BOGALUSA*        N/A     34  24  67 N5        30.55S WCI  29
6HR MIN TEMP:  32; 6HR MAX TEMP:  40;

GALLIANO*      CLEAR     44  27  51 NE6       30.50S
6HR MIN TEMP:  43; 6HR MAX TEMP:  47;

NEW ROADS*       N/A     33  26  75 N6        30.54S WCI  27
6HR MIN TEMP:  33; 6HR MAX TEMP:  42;

GONZALES*        N/A     38  23  54 N3        30.52S
6HR MIN TEMP:  38; 6HR MAX TEMP:  46;

HAMMOND*       CLEAR     36  23  60 NE5       30.52S WCI  32
HOUMA*         PTCLDY    37  31  78 N5        30.50F WCI  33
6HR MIN TEMP:  36; 6HR MAX TEMP:  43;

PORT FOURCHON* CLEAR     48  28  46 NE12      30.48F

$$

MSZ070-080>082-100700-
SOUTHERN MISSISSIPPI

CITY           SKY/WX    TMP DP  RH WIND       PRES   REMARKS
MCCOMB         CLEAR     34  19  54 N6        30.53S WCI  29
6HR MIN TEMP:  34; 6HR MAX TEMP:  42;

GULFPORT       CLEAR     37  22  54 N8        30.51F WCI  31
6HR MIN TEMP:  37; 6HR MAX TEMP:  45;

BILOXI         CLEAR     38  22  53 NE10      30.51S WCI  31
6HR MIN TEMP:  38; 6HR MAX TEMP:  44;

PASCAGOULA     CLEAR     35  21  56 N10       30.51F WCI  27
6HR MIN TEMP:  34; 6HR MAX TEMP:  40;


$$

COASTAL OBSERVATIONS
LAKE AND NEARSHORE STATIONS

STATION/POSITION TIME  TEMP    WIND        PRES    WAVE
                       AIR SEA DIR/SP/G            HT/PER
                 (UTC) (F)     (DEG/KT/KT) (MB)    (FT/S)
PASCAGOULA       0548           10/ 11/ 13 1032.7
WAVELAND YACHT   0548           40/ 13/ 15 1033.2
GRAND ISLE       0548           50/ 12/ 15 1032.3
SOUTHWEST PASS   0542           30/ 14/ 18   N/A
NEW CANAL        0548           50/ 19/ 22 1032.0
SHELL BEACH      0548           40/ 18/ 20 1032.8

OFFSHORE STATIONS

STATION/POSITION TIME  TEMP    WIND        PRES    WAVE
                       AIR SEA DIR/SP/G            HT/PER
                 (UTC) (F)     (DEG/KT/KT) (MB)    (FT/S)
64 S DAUPHIN ISL 0550   55 74   40/ 16/ 21 1031.5    4/ 6

$$





USA.gov is the U.S. government's official web portal to all federal, state and local government web resources and services.